CES5244 ZGSZ-ZSQD

Flight info

Callsign CES5244
Flight time N/A
Altitude 33100
Route IDUMA W41 ISLOM G471 XEBUL DCT ODOPI DCT AKAVO DCT DST W117 BEGMO W13 TOGUG/K0859S1040 W13 HSN/K0861S1010 W13 PINOT/K0857S1040 B221 IDVEL
Aircraft A321/M-SDE3FGHIRWY/LB1

Departure

Time 2026-04-21 11:33
Airport Shenzhen Bao'an International Airport (ZGSZ)

Arrival

Time N/A
Airport Qingdao Jiaodong International Airport (ZSQD)
Time Latitude Longitude Altitude Speed Heading
2026-04-21 10:36 22.63299 113.80743 15 ft 0 kts 333°
2026-04-21 11:18 22.63295 113.80745 15 ft 3 kts 333°
2026-04-21 11:18 22.63272 113.80760 21 ft 4 kts 326°
2026-04-21 11:19 22.63254 113.80772 15 ft 3 kts 328°
2026-04-21 11:19 22.63231 113.80787 16 ft 4 kts 329°
2026-04-21 11:19 22.63208 113.80801 15 ft 2 kts 334°
2026-04-21 11:19 22.63207 113.80802 18 ft 0 kts 334°
2026-04-21 11:24 22.63207 113.80801 15 ft 0 kts 334°
2026-04-21 11:24 22.63213 113.80798 16 ft 1 kts 337°
2026-04-21 11:24 22.63220 113.80797 15 ft 0 kts 349°
2026-04-21 11:25 22.63223 113.80796 15 ft 2 kts 349°
2026-04-21 11:25 22.63242 113.80804 15 ft 4 kts 38°
2026-04-21 11:26 22.63263 113.80838 17 ft 7 kts 60°
2026-04-21 11:26 22.63289 113.80893 15 ft 10 kts 64°
2026-04-21 11:26 22.63322 113.80964 15 ft 11 kts 63°
2026-04-21 11:26 22.63370 113.81030 15 ft 11 kts 18°
2026-04-21 11:27 22.63444 113.81005 15 ft 11 kts 333°
2026-04-21 11:27 22.63516 113.80965 15 ft 12 kts 333°
2026-04-21 11:27 22.63589 113.80924 15 ft 12 kts 333°
2026-04-21 11:27 22.63665 113.80883 15 ft 12 kts 333°
2026-04-21 11:28 22.63742 113.80841 15 ft 13 kts 333°
2026-04-21 11:28 22.63826 113.80795 15 ft 14 kts 333°
2026-04-21 11:28 22.63917 113.80745 15 ft 15 kts 333°
2026-04-21 11:28 22.64014 113.80691 15 ft 16 kts 333°
2026-04-21 11:29 22.64118 113.80634 15 ft 17 kts 333°
2026-04-21 11:29 22.64228 113.80574 15 ft 18 kts 333°
2026-04-21 11:29 22.64344 113.80510 15 ft 19 kts 333°
2026-04-21 11:29 22.64464 113.80444 15 ft 20 kts 333°
2026-04-21 11:30 22.64586 113.80377 15 ft 20 kts 333°
2026-04-21 11:30 22.64707 113.80310 15 ft 20 kts 333°
2026-04-21 11:30 22.64829 113.80244 17 ft 19 kts 333°
2026-04-21 11:30 22.64950 113.80177 15 ft 19 kts 333°
2026-04-21 11:31 22.65071 113.80111 15 ft 19 kts 333°
2026-04-21 11:31 22.65157 113.80081 15 ft 10 kts 28°
2026-04-21 11:31 22.65193 113.80148 15 ft 11 kts 63°
2026-04-21 11:31 22.65227 113.80220 15 ft 11 kts 63°
2026-04-21 11:32 22.65261 113.80295 16 ft 11 kts 70°
2026-04-21 11:32 22.65230 113.80345 15 ft 9 kts 151°
2026-04-21 11:32 22.65158 113.80385 15 ft 26 kts 153°
2026-04-21 11:32 22.64783 113.80591 15 ft 92 kts 153°
2026-04-21 11:33 22.64325 113.80843 16 ft 130 kts 153°
2026-04-21 11:33 22.63374 113.81367 34 ft 173 kts 155°
2026-04-21 11:33 22.62328 113.81965 717 ft 165 kts 154°
2026-04-21 11:33 22.61310 113.82532 1328 ft 166 kts 154°
2026-04-21 11:34 22.60213 113.83128 1484 ft 187 kts 154°
2026-04-21 11:34 22.58980 113.83793 1623 ft 209 kts 155°
2026-04-21 11:34 22.57609 113.84535 1795 ft 230 kts 155°
2026-04-21 11:34 22.56171 113.85316 2425 ft 231 kts 155°
2026-04-21 11:35 22.54735 113.86098 3089 ft 231 kts 155°
2026-04-21 11:35 22.53293 113.86886 3699 ft 233 kts 155°
2026-04-21 11:35 22.51835 113.87681 4292 ft 236 kts 155°
2026-04-21 11:35 22.50513 113.88740 4836 ft 243 kts 127°
2026-04-21 11:36 22.49973 113.90494 5319 ft 257 kts 90°
2026-04-21 11:36 22.50374 113.92404 5814 ft 266 kts 69°
2026-04-21 11:36 22.51199 113.94217 6341 ft 271 kts 62°
2026-04-21 11:36 22.52166 113.95984 6854 ft 275 kts 60°
2026-04-21 11:37 22.53160 113.97758 7380 ft 278 kts 60°
2026-04-21 11:37 22.54215 113.99524 7889 ft 281 kts 49°
2026-04-21 11:37 22.55661 114.00941 8417 ft 282 kts 32°
2026-04-21 11:37 22.57442 114.01894 8704 ft 294 kts 14°
2026-04-21 11:38 22.59476 114.02256 9040 ft 299 kts
2026-04-21 11:38 22.61569 114.02465 9512 ft 304 kts
2026-04-21 11:38 22.63681 114.02685 10021 ft 306 kts
2026-04-21 11:38 22.65843 114.02913 10257 ft 321 kts
2026-04-21 11:39 22.68127 114.03151 10382 ft 338 kts
2026-04-21 11:39 22.70526 114.03195 10501 ft 351 kts 351°
2026-04-21 11:39 22.72938 114.02608 10615 ft 362 kts 336°
2026-04-21 11:39 22.75313 114.01563 10737 ft 376 kts 334°
2026-04-21 11:40 22.77777 114.00457 10856 ft 390 kts 334°
2026-04-21 11:40 22.80311 113.99320 11141 ft 397 kts 334°
2026-04-21 11:40 22.82878 113.98173 11598 ft 400 kts 334°
2026-04-21 11:40 22.85461 113.97022 12092 ft 402 kts 334°
2026-04-21 11:41 22.88137 113.96074 12553 ft 409 kts 344°
2026-04-21 11:41 22.90983 113.95684 13039 ft 416 kts 355°
2026-04-21 11:41 22.93855 113.95890 13517 ft 423 kts
2026-04-21 11:41 22.96764 113.96405 13959 ft 425 kts
2026-04-21 11:42 22.99691 113.96920 14401 ft 427 kts
2026-04-21 11:42 23.02631 113.97430 14841 ft 429 kts
2026-04-21 11:42 23.05586 113.97939 15275 ft 431 kts
2026-04-21 11:42 23.08556 113.98451 15696 ft 433 kts
2026-04-21 11:43 23.11541 113.98966 16101 ft 435 kts
2026-04-21 11:43 23.14534 113.99485 16491 ft 437 kts
2026-04-21 11:43 23.17542 114.00010 16867 ft 439 kts
2026-04-21 11:43 23.20565 114.00539 17250 ft 441 kts
2026-04-21 11:44 23.23601 114.01074 17615 ft 443 kts
2026-04-21 11:44 23.26628 114.01769 17974 ft 448 kts 13°
2026-04-21 11:44 23.29544 114.03010 18314 ft 454 kts 24°
2026-04-21 11:44 23.32250 114.04802 18639 ft 459 kts 34°
2026-04-21 11:45 23.34776 114.06943 18921 ft 461 kts 36°
2026-04-21 11:45 23.37308 114.09105 19192 ft 463 kts 35°
2026-04-21 11:45 23.39849 114.11274 19460 ft 465 kts 35°
2026-04-21 11:45 23.42399 114.13453 19749 ft 467 kts 35°
2026-04-21 11:46 23.44956 114.15640 20029 ft 469 kts 35°
2026-04-21 11:46 23.47525 114.17839 20299 ft 470 kts 35°
2026-04-21 11:46 23.50102 114.20046 20568 ft 472 kts 35°
2026-04-21 11:46 23.52686 114.22259 20835 ft 473 kts 35°
2026-04-21 11:47 23.55278 114.24478 21082 ft 475 kts 35°
2026-04-21 11:47 23.57878 114.26702 21331 ft 476 kts 35°
2026-04-21 11:47 23.60494 114.28934 21583 ft 478 kts 35°
2026-04-21 11:47 23.63116 114.31180 21831 ft 480 kts 35°
2026-04-21 11:48 23.65743 114.33428 22084 ft 481 kts 34°
2026-04-21 11:48 23.68400 114.35656 22328 ft 482 kts 34°
2026-04-21 11:48 23.71086 114.37864 22569 ft 484 kts 33°
2026-04-21 11:48 23.73790 114.40059 22812 ft 485 kts 33°
2026-04-21 11:49 23.76505 114.42251 23036 ft 486 kts 33°
2026-04-21 11:49 23.79230 114.44459 23266 ft 488 kts 33°
2026-04-21 11:49 23.81955 114.46682 23487 ft 490 kts 33°
2026-04-21 11:49 23.84684 114.48919 23673 ft 491 kts 33°
2026-04-21 11:50 23.87416 114.51168 23856 ft 493 kts 33°
2026-04-21 11:50 23.90157 114.53429 24051 ft 495 kts 33°
2026-04-21 11:50 23.92910 114.55699 24250 ft 496 kts 33°
2026-04-21 11:50 23.95670 114.57975 24446 ft 498 kts 33°
2026-04-21 11:51 23.98438 114.60258 24645 ft 499 kts 33°
2026-04-21 11:51 24.01208 114.62544 24920 ft 499 kts 33°
2026-04-21 11:51 24.03979 114.64833 25204 ft 498 kts 33°
2026-04-21 11:51 24.06742 114.67119 25482 ft 498 kts 33°
2026-04-21 11:52 24.09501 114.69406 25767 ft 497 kts 33°
2026-04-21 11:52 24.12258 114.71690 26042 ft 497 kts 34°
2026-04-21 11:52 24.14979 114.73943 26324 ft 496 kts 33°
2026-04-21 11:52 24.17734 114.76222 26616 ft 496 kts 33°
2026-04-21 11:53 24.20487 114.78496 26905 ft 495 kts 33°
2026-04-21 11:53 24.23235 114.80768 27196 ft 495 kts 33°
2026-04-21 11:53 24.25986 114.83047 27484 ft 495 kts 34°
2026-04-21 11:53 24.28566 114.85562 27764 ft 499 kts 43°
2026-04-21 11:54 24.30797 114.88491 28037 ft 501 kts 50°
2026-04-21 11:54 24.32911 114.91530 28337 ft 501 kts 50°
2026-04-21 11:54 24.35029 114.94557 28628 ft 500 kts 50°
2026-04-21 11:54 24.37154 114.97579 28915 ft 500 kts 49°
2026-04-21 11:55 24.39278 115.00595 29209 ft 499 kts 49°
2026-04-21 11:55 24.41400 115.03613 29491 ft 499 kts 49°
2026-04-21 11:55 24.43518 115.06628 29788 ft 499 kts 49°
2026-04-21 11:55 24.45629 115.09640 30060 ft 498 kts 50°
2026-04-21 11:56 24.47738 115.12659 30326 ft 497 kts 50°
2026-04-21 11:56 24.49837 115.15672 30574 ft 497 kts 49°
2026-04-21 11:56 24.51937 115.18686 30826 ft 496 kts 49°
2026-04-21 11:56 24.54029 115.21687 31085 ft 495 kts 49°
2026-04-21 11:57 24.56121 115.24683 31338 ft 494 kts 49°
2026-04-21 11:57 24.58208 115.27675 31590 ft 493 kts 49°
2026-04-21 11:57 24.60293 115.30663 31849 ft 492 kts 49°
2026-04-21 11:57 24.62373 115.33650 32103 ft 491 kts 49°
2026-04-21 11:58 24.64445 115.36631 32359 ft 490 kts 49°
2026-04-21 11:58 24.66511 115.39609 32600 ft 489 kts 49°
2026-04-21 11:58 24.68560 115.42593 32865 ft 489 kts 49°
2026-04-21 11:58 24.70571 115.45616 32981 ft 490 kts 50°
2026-04-21 11:59 24.74536 115.51768 33015 ft 494 kts 51°
2026-04-21 11:59 24.78494 115.57950 33001 ft 494 kts 51°
2026-04-21 12:00 24.82485 115.64119 33007 ft 494 kts 50°
2026-04-21 12:00 24.86491 115.70277 33007 ft 495 kts 50°
2026-04-21 12:01 24.90497 115.76455 33019 ft 496 kts 50°
2026-04-21 12:01 24.94499 115.82641 33031 ft 496 kts 50°
2026-04-21 12:02 25.00470 115.91896 33023 ft 496 kts 50°
2026-04-21 12:03 25.04470 115.98098 33026 ft 496 kts 50°
2026-04-21 12:03 25.08464 116.04309 33033 ft 496 kts 50°
2026-04-21 12:04 25.12449 116.10525 33045 ft 496 kts 50°
2026-04-21 12:04 25.16435 116.16735 33045 ft 495 kts 50°
2026-04-21 12:05 25.20416 116.22937 33039 ft 494 kts 50°
2026-04-21 12:05 25.24373 116.29132 33036 ft 494 kts 50°
2026-04-21 12:06 25.28335 116.35323 33041 ft 493 kts 50°
2026-04-21 12:06 25.32299 116.41510 33037 ft 493 kts 49°
2026-04-21 12:07 25.36242 116.47710 33035 ft 493 kts 50°
2026-04-21 12:07 25.40176 116.53907 33041 ft 492 kts 49°
2026-04-21 12:08 25.44124 116.60104 33040 ft 492 kts 49°
2026-04-21 12:08 25.48063 116.66292 33048 ft 492 kts 49°
2026-04-21 12:09 25.51999 116.72494 33053 ft 492 kts 49°
2026-04-21 12:09 25.55930 116.78703 33056 ft 492 kts 49°
2026-04-21 12:10 25.59854 116.84912 33053 ft 492 kts 49°
2026-04-21 12:10 25.63786 116.91129 33044 ft 492 kts 50°
2026-04-21 12:11 25.67713 116.97355 33045 ft 493 kts 50°
2026-04-21 12:11 25.71643 117.03601 33044 ft 494 kts 50°
2026-04-21 12:12 25.75575 117.09855 33038 ft 494 kts 50°
2026-04-21 12:12 25.79512 117.16116 33040 ft 495 kts 50°
2026-04-21 12:13 25.83449 117.22392 33034 ft 496 kts 50°
2026-04-21 12:13 25.87388 117.28678 33031 ft 497 kts 50°
2026-04-21 12:14 25.91340 117.34979 33037 ft 497 kts 50°
2026-04-21 12:14 25.95284 117.41292 33039 ft 498 kts 50°
2026-04-21 12:15 25.99230 117.47622 33037 ft 499 kts 50°
2026-04-21 12:15 26.02516 117.52891 33039 ft 499 kts 50°
2026-04-21 12:16 26.06470 117.59239 33047 ft 500 kts 50°
2026-04-21 12:16 26.10424 117.65594 33048 ft 500 kts 50°
2026-04-21 12:17 26.14379 117.71955 33057 ft 499 kts 50°
2026-04-21 12:17 26.18330 117.78324 33059 ft 500 kts 50°
2026-04-21 12:18 26.22272 117.84700 33061 ft 500 kts 50°
2026-04-21 12:18 26.26219 117.91087 33058 ft 500 kts 50°
2026-04-21 12:19 26.30158 117.97485 33060 ft 501 kts 50°
2026-04-21 12:19 26.34107 118.03885 33068 ft 501 kts 50°
2026-04-21 12:20 26.38052 118.10284 33072 ft 501 kts 50°
2026-04-21 12:20 26.41972 118.16659 33073 ft 501 kts 50°
2026-04-21 12:21 26.45912 118.23074 33068 ft 501 kts 51°
2026-04-21 12:21 26.49849 118.29486 33088 ft 501 kts 51°
2026-04-21 12:22 26.53784 118.35905 33083 ft 501 kts 51°
2026-04-21 12:22 26.57718 118.42333 33089 ft 501 kts 51°
2026-04-21 12:23 26.61642 118.48769 33089 ft 501 kts 51°
2026-04-21 12:23 26.65563 118.55214 33104 ft 501 kts 51°
2026-04-21 12:24 26.69484 118.61643 33106 ft 500 kts 51°
2026-04-21 12:24 26.73392 118.68076 33114 ft 499 kts 52°
2026-04-21 12:25 26.77292 118.74500 33124 ft 498 kts 52°
2026-04-21 12:25 26.81189 118.80927 33125 ft 498 kts 52°
2026-04-21 12:26 26.85076 118.87353 33135 ft 498 kts 52°
2026-04-21 12:26 26.88957 118.93777 33140 ft 498 kts 52°
2026-04-21 12:27 26.92839 119.00202 33140 ft 498 kts 52°
2026-04-21 12:27 26.96718 119.06630 33144 ft 498 kts 52°
2026-04-21 12:28 27.00594 119.13074 33150 ft 498 kts 52°
2026-04-21 12:28 27.04468 119.19518 33146 ft 498 kts 52°
2026-04-21 12:29 27.08341 119.25968 33152 ft 498 kts 52°
2026-04-21 12:29 27.12212 119.32423 33149 ft 498 kts 52°
2026-04-21 12:30 27.16074 119.38885 33153 ft 498 kts 52°
2026-04-21 12:30 27.19924 119.45354 33151 ft 498 kts 53°
2026-04-21 12:31 27.23774 119.51818 33157 ft 497 kts 53°
2026-04-21 12:31 27.27370 119.58474 33158 ft 500 kts 59°
2026-04-21 12:32 27.30573 119.65407 33165 ft 500 kts 60°
2026-04-21 12:32 27.33762 119.72342 33163 ft 499 kts 60°
2026-04-21 12:33 27.36926 119.79234 33166 ft 499 kts 60°
2026-04-21 12:33 27.40105 119.86171 33174 ft 499 kts 60°
2026-04-21 12:34 27.49987 120.07792 33172 ft 498 kts 61°
2026-04-21 12:34 27.62598 120.35513 33193 ft 497 kts 61°
2026-04-21 12:35 27.74973 120.63399 33132 ft 499 kts 69°
2026-04-21 12:35 27.81508 120.93942 33147 ft 502 kts 75°
2026-04-21 12:36 27.87930 121.24723 33140 ft 505 kts 76°
2026-04-21 12:36 27.94350 121.55678 33147 ft 507 kts 76°
2026-04-21 12:37 28.03305 121.83774 33203 ft 498 kts 41°
2026-04-21 12:37 28.08765 121.88377 33142 ft 484 kts 22°
2026-04-21 12:38 28.17389 121.93355 33153 ft 485 kts 21°
2026-04-21 12:38 28.41507 122.07329 33186 ft 488 kts 22°
2026-04-21 12:39 28.65672 122.21402 33191 ft 487 kts 22°
2026-04-21 12:39 28.89779 122.35526 33192 ft 487 kts 22°
2026-04-21 12:40 29.13888 122.49719 33187 ft 487 kts 21°
2026-04-21 12:40 29.26669 122.51788 33145 ft 460 kts 344°
2026-04-21 12:40 29.39172 122.48875 32949 ft 461 kts 343°
2026-04-21 12:40 29.45793 122.47371 33203 ft 455 kts 343°
2026-04-21 12:41 29.48895 122.46655 33158 ft 454 kts 343°
2026-04-21 12:41 29.55094 122.45216 33147 ft 455 kts 343°
2026-04-21 12:42 29.61306 122.43765 33154 ft 456 kts 343°
2026-04-21 12:42 29.67539 122.42308 33156 ft 457 kts 343°
2026-04-21 12:43 29.73994 122.40806 33165 ft 458 kts 343°
2026-04-21 12:43 29.98537 122.36680 33180 ft 468 kts 359°
2026-04-21 12:44 30.24581 122.38299 33176 ft 469 kts 358°
2026-04-21 12:44 30.50688 122.39682 33180 ft 470 kts 357°
2026-04-21 12:45 30.76876 122.41137 33181 ft 471 kts 357°
2026-04-21 12:45 31.03074 122.42624 33182 ft 471 kts 357°
2026-04-21 12:46 31.29277 122.44085 33191 ft 471 kts 357°
2026-04-21 12:46 31.54468 122.40639 33190 ft 451 kts 333°
2026-04-21 12:47 31.77906 122.29988 33199 ft 450 kts 332°
2026-04-21 12:47 32.01180 122.19090 33197 ft 450 kts 333°
2026-04-21 12:48 32.24476 122.08483 33189 ft 448 kts 333°
2026-04-21 12:48 32.47725 121.97886 33193 ft 448 kts 333°
2026-04-21 12:49 32.70810 121.87284 33200 ft 447 kts 332°
2026-04-21 12:49 32.94040 121.76563 33197 ft 447 kts 332°
2026-04-21 12:50 33.17227 121.65791 33202 ft 447 kts 332°
2026-04-21 12:50 33.40121 121.54415 33201 ft 444 kts 329°
2026-04-21 12:51 33.62857 121.42676 33200 ft 444 kts 330°
2026-04-21 12:51 33.85897 121.31623 33203 ft 446 kts 332°
2026-04-21 12:52 34.02688 121.23635 33199 ft 446 kts 331°
2026-04-21 12:52 34.08466 121.20883 33201 ft 447 kts 332°
2026-04-21 12:53 34.14249 121.18126 33202 ft 447 kts 331°
2026-04-21 12:53 34.20034 121.15364 33205 ft 447 kts 331°
2026-04-21 12:54 34.25824 121.12604 33203 ft 447 kts 331°
2026-04-21 12:54 34.31605 121.09836 33206 ft 447 kts 331°
2026-04-21 12:55 34.37384 121.07060 33205 ft 446 kts 331°
2026-04-21 12:55 34.43156 121.04283 33207 ft 446 kts 331°
2026-04-21 12:56 34.48929 121.01507 33212 ft 446 kts 331°
2026-04-21 12:56 34.54695 120.98730 33214 ft 445 kts 331°
2026-04-21 12:57 34.60450 120.95954 33212 ft 444 kts 331°
2026-04-21 12:57 34.66188 120.93179 33216 ft 443 kts 330°
2026-04-21 12:58 34.70945 120.90874 33214 ft 442 kts 330°
2026-04-21 12:58 34.76655 120.88103 33216 ft 441 kts 330°
2026-04-21 12:59 34.82350 120.85340 33209 ft 440 kts 330°
2026-04-21 12:59 34.88041 120.82578 33215 ft 440 kts 330°
2026-04-21 13:00 34.93728 120.79821 33209 ft 440 kts 330°
2026-04-21 13:00 34.99400 120.77046 33186 ft 440 kts 330°
2026-04-21 13:00 35.02238 120.75656 32922 ft 439 kts 330°
2026-04-21 13:01 35.05073 120.74267 32666 ft 440 kts 330°
2026-04-21 13:01 35.07918 120.72877 32418 ft 441 kts 330°
2026-04-21 13:01 35.10773 120.71489 32183 ft 443 kts 331°
2026-04-21 13:01 35.13642 120.70090 31933 ft 444 kts 330°
2026-04-21 13:02 35.16515 120.68685 31690 ft 446 kts 330°
2026-04-21 13:02 35.19396 120.67273 31454 ft 447 kts 331°
2026-04-21 13:02 35.25196 120.64455 30984 ft 450 kts 331°
2026-04-21 13:03 35.28115 120.63045 30745 ft 451 kts 331°
2026-04-21 13:03 35.31034 120.61631 30513 ft 452 kts 331°
2026-04-21 13:03 35.33958 120.60209 30280 ft 453 kts 331°
2026-04-21 13:03 35.36890 120.58783 29955 ft 454 kts 331°
2026-04-21 13:04 35.39840 120.57352 28868 ft 460 kts 332°
2026-04-21 13:04 35.42829 120.55906 27847 ft 464 kts 332°
2026-04-21 13:04 35.45854 120.54437 26798 ft 469 kts 332°
2026-04-21 13:04 35.48900 120.52954 25732 ft 474 kts 332°
2026-04-21 13:05 35.51980 120.51455 24690 ft 478 kts 332°
2026-04-21 13:05 35.55087 120.49948 23682 ft 482 kts 332°
2026-04-21 13:05 35.58206 120.48438 22883 ft 478 kts 333°
2026-04-21 13:05 35.61287 120.46947 22018 ft 475 kts 333°
2026-04-21 13:06 35.64295 120.45491 21295 ft 468 kts 333°
2026-04-21 13:06 35.67316 120.44026 20581 ft 463 kts 333°
2026-04-21 13:06 35.70261 120.42597 19593 ft 447 kts 333°
2026-04-21 13:06 35.73152 120.41187 18874 ft 444 kts 334°
2026-04-21 13:07 35.76005 120.39793 18158 ft 440 kts 334°
2026-04-21 13:07 35.78837 120.38401 17393 ft 436 kts 334°
2026-04-21 13:07 35.81634 120.37027 16696 ft 430 kts 334°
2026-04-21 13:07 35.84402 120.35668 16011 ft 426 kts 334°
2026-04-21 13:08 35.87138 120.34324 15352 ft 421 kts 334°
2026-04-21 13:08 35.89850 120.32989 14715 ft 417 kts 335°
2026-04-21 13:08 35.92528 120.31670 14089 ft 413 kts 335°
2026-04-21 13:08 35.95182 120.30363 13437 ft 409 kts 335°
2026-04-21 13:09 35.97892 120.29301 12846 ft 407 kts 344°
2026-04-21 13:09 36.00680 120.28762 12274 ft 405 kts 352°
2026-04-21 13:09 36.03473 120.28449 11696 ft 400 kts 352°
2026-04-21 13:09 36.06216 120.28134 11390 ft 388 kts 353°
2026-04-21 13:10 36.08846 120.27824 11262 ft 371 kts 352°
2026-04-21 13:10 36.11356 120.27519 11137 ft 355 kts 353°
2026-04-21 13:10 36.13763 120.27224 11011 ft 340 kts 353°
2026-04-21 13:10 36.16073 120.26947 10898 ft 327 kts 353°
2026-04-21 13:11 36.18295 120.26685 10766 ft 315 kts 353°
2026-04-21 13:11 36.20439 120.26433 10651 ft 304 kts 353°
2026-04-21 13:11 36.22515 120.26185 10428 ft 297 kts 353°
2026-04-21 13:11 36.24545 120.25942 10298 ft 293 kts 354°
2026-04-21 13:12 36.26570 120.25701 10136 ft 292 kts 354°
2026-04-21 13:12 36.28590 120.25438 10001 ft 292 kts 351°
2026-04-21 13:12 36.30575 120.24794 9502 ft 298 kts 342°
2026-04-21 13:12 36.32552 120.24014 9041 ft 300 kts 342°
2026-04-21 13:13 36.34529 120.23235 8642 ft 299 kts 342°
2026-04-21 13:13 36.36496 120.22460 8335 ft 296 kts 342°
2026-04-21 13:13 36.38455 120.21694 7962 ft 295 kts 342°
2026-04-21 13:13 36.40411 120.20931 7592 ft 294 kts 342°
2026-04-21 13:14 36.42360 120.20166 7209 ft 294 kts 342°
2026-04-21 13:14 36.44308 120.19400 6826 ft 293 kts 342°
2026-04-21 13:14 36.46242 120.18640 6129 ft 291 kts 342°
2026-04-21 13:14 36.48174 120.17881 5387 ft 291 kts 342°
2026-04-21 13:15 36.50097 120.17127 4697 ft 288 kts 342°
2026-04-21 13:15 36.51985 120.16384 4186 ft 283 kts 341°
2026-04-21 13:15 36.53868 120.15642 3849 ft 282 kts 341°
2026-04-21 13:15 36.55733 120.14910 3322 ft 280 kts 341°
2026-04-21 13:16 36.57533 120.14203 3051 ft 260 kts 340°
2026-04-21 13:16 36.59204 120.13549 2997 ft 246 kts 340°
2026-04-21 13:16 36.60785 120.12785 2999 ft 242 kts 322°
2026-04-21 13:16 36.61821 120.11255 3011 ft 225 kts 289°
2026-04-21 13:17 36.61999 120.09401 3004 ft 214 kts 257°
2026-04-21 13:17 36.61584 120.07679 3011 ft 198 kts 249°
2026-04-21 13:17 36.61178 120.06109 2997 ft 186 kts 250°
2026-04-21 13:17 36.60786 120.04592 2992 ft 182 kts 250°
2026-04-21 13:18 36.60401 120.03096 2993 ft 181 kts 250°
2026-04-21 13:18 36.60018 120.01609 2993 ft 180 kts 249°
2026-04-21 13:18 36.59611 120.00134 2998 ft 177 kts 241°
2026-04-21 13:18 36.58791 119.99152 2990 ft 161 kts 202°
2026-04-21 13:19 36.57704 119.99044 2989 ft 159 kts 166°
2026-04-21 13:19 36.56698 119.99627 2991 ft 159 kts 161°
2026-04-21 13:19 36.55631 119.99943 3002 ft 158 kts 167°
2026-04-21 13:19 36.54572 120.00316 3003 ft 158 kts 165°
2026-04-21 13:20 36.53521 120.00714 3002 ft 158 kts 165°
2026-04-21 13:20 36.52474 120.01120 3007 ft 158 kts 165°
2026-04-21 13:20 36.51426 120.01531 2943 ft 158 kts 164°
2026-04-21 13:20 36.50381 120.01942 2785 ft 157 kts 164°
2026-04-21 13:21 36.49351 120.02348 2592 ft 156 kts 165°